Showing default

ATS 6, 7318

Orbit data source: Space-Track

ATS 6, 7318 is a payload satellite owned by GSFC (US) in GEO that was launched on Thu, 30 May 1974 UTC via a TITAN IIIC launch vehicle from the Air Force Eastern Test Range (AFETR). Payload-class satellites include a variety of spacecraft equipped with specific instruments for various scientific and technological missions. These include communications satellites like Starlink; space stations such as the ISS; scientific satellites like the Hubble; Earth observation satellites from companies like Planet Labs, Umbra, and HawkEye 360; GPS; miniature CubeSats for education and research; and military/defense satellites.

Loading next visibility...
Identifier
7318, 1974-039A
Orbit
GEO
Country
Flag of USUS
Related business
Manufacturer
Fairchild
Mission
Non-operational spacecraft
Bus & Motor
ATS F, Unknown motor
Mass
1,357 kg wet, 1,308 kg dry
Launch date (UTC)
1974-05-30 (52 years ago)
Launch vehicle
TITAN IIIC
Launch site
Air Force Eastern Test Range (AFETR)
Object type
Payload
Rocket body
Debris
Shape & HBR
Unknown
Radar Cross Section
Large (>1 m²)

Expand to show TLE details & history
Last TLE update: 8 hours ago

TLE from 8 hours ago
0 ATS 6
1 07318U 74039A   26133.14480512  .00000043  00000-0  00000-0 0  9999
2 07318   2.0301 248.8967 0028912 345.9715 240.0479  1.01976926121648
Epoch: 2026-05-13T03:28Z
TLE epoch observation values (Epoch: 2026-05-13T03:28:31.162Z)
Latitude
-1.46581°
Longitude
-168.44751°
Altitude
35,375.55 km
Speed
3.088 km/s
True Right ascension
07h 38m 21s
True Declination
-1° 27' 52"
Sunlit
Object was in daylight at epoch
Visualization orbit readout
Latitude
Unknown
Longitude
Unknown
Altitude
Unknown
Speed
Unknown
Apparent Right ascension
Unknown
Apparent Declination
Unknown
Sunlit
N/A
Visualization observer readout
Local Sidereal Time
19:57:25
Azimuth
Unknown
Elevation
Unknown
Doppler factor
Unknown
Orbital elements
Apogee altitude
35,436.882 km
Perigee altitude
35,195.788 km
Semi-major axis
41,694.472 km
Eccentricity
0.00289
Inclination
2.0301°
RAAN
248.8967°
Arg. of periapsis
345.9715°
True anomaly
239.76136°
Mean anomaly
240.0479°
Eccentric anomaly
239.90458°
Mean motion
0.25493 °/min
Orbital period
1,412.14 mins
BSTAR
0
Loading maneuver chart data...
Computing Atmospheric mass density...
Loading historical data...
Loading historical data...
Loading historical data...
Loading historical data...
Loading historical data...
Loading historical data...
Loading historical data...
Other satellites on launch #39 in the year 1974 (1974-05-30 UTC)

Documentation

Showing up to 5 results
|